User: anonymous   Login
Location: Ar Ranvel
(48.3000°N, 4.8833°W)
Time: 23:07:35
(UTC+00:00)
Language:

Cosmos 2228 - Orbit

View from above orbital plane
View from above orbital plane
View from above satellite
View from above satellite

Ground track
Ground track

The orbit data is extracted from the following two-line orbital elements,

1 22286U 92094A   21269.45394729  .00000389  00000-0  39251-4 0  9991
2 22286  82.5223 340.0760 0020344 337.0530  22.9776 14.88329851533753
Epoch (UTC): 26 September 2021 10:53:41
Eccentricity: 0.0020344
inclination: 82.5223°
perigee height: 589 km
apogee height: 617 km
right ascension of ascending node: 340.0760°
argument of perigee: 337.0530°
revolutions per day: 14.88329851
mean anomaly at epoch: 22.9776°
orbit number at epoch: 53375

The dashed part of the orbit path shows where the satellite is in the earth's shadow,  

DLR